Location: Hradec Kralove
(50.2170°N, 15.8330°E)
Time: 11:01:39
(UTC+01:00)

ISS - Pass Details

Date: 15 November 2024
Orbit: 411 x 421 km, 51.6° (Epoch: 05 December)

Event Time Altitude Azimuth Distance (km) Brightness Sun altitude
Rises 18:29:20 0° 224° (SW) 2,372 0.8 -21.9°
Reaches altitude 10° 18:31:32 10° 214° (SW) 1,510 -0.5 -22.2°
Enters shadow 18:33:14 23° 194° (SSW) 943 -1.9 -22.5°
